| time (UTC) | temp F | wind direction | speed knots | gust knots | rain 1hr in | rain 24hr in | rain mn in | humidity % | barometer mb |
| 20260503022003 | 51 | 86 | 3.5 | 7.0 | 0.00 | 0.00 | 0.00 | 95 | 1010.7 |
| 20260503021524 | 51 | 83 | 4.3 | 7.8 | 0.00 | 0.00 | 0.00 | 95 | 1010.7 |
| 20260503021024 | 51 | 83 | 4.3 | 7.8 | 0.00 | 0.00 | 0.00 | 95 | 1010.7 |
| 20260503020503 | 52 | 89 | 4.3 | 8.7 | 0.00 | 0.00 | 0.00 | 95 | 1010.7 |
| 20260503020003 | 52 | 88 | 2.6 | 8.7 | 0.00 | 0.00 | 0.00 | 95 | 1010.7 |
| 20260503015524 | 52 | 3 | 0.9 | 4.3 | 0.00 | 0.00 | 0.00 | 95 | 1010.6 |
| 20260503015003 | 52 | 323 | 0.9 | 2.6 | 0.00 | 0.00 | 0.00 | 95 | 1010.7 |
| 20260503014503 | 52 | 324 | 0.9 | 2.6 | 0.00 | 0.00 | 0.00 | 95 | 1010.7 |
| 20260503014003 | 52 | 353 | 1.7 | 5.2 | 0.00 | 0.00 | 0.00 | 95 | 1010.7 |
| 20260503013503 | 51 | 19 | 2.6 | 6.1 | 0.00 | 0.00 | 0.00 | 95 | 1010.7 |
| 20260503013024 | 51 | 61 | 3.5 | 7.0 | 0.00 | 0.00 | 0.00 | 95 | 1010.7 |
| 20260503012503 | 51 | 62 | 3.5 | 7.0 | 0.00 | 0.00 | 0.00 | 95 | 1010.8 |
| 20260503012003 | 52 | 57 | 3.5 | 7.8 | 0.00 | 0.00 | 0.00 | 95 | 1010.8 |
| 20260503011503 | 52 | 50 | 3.5 | 7.8 | 0.00 | 0.00 | 0.00 | 95 | 1010.9 |
| 20260503011004 | 52 | 28 | 2.6 | 6.1 | 0.00 | 0.00 | 0.00 | 95 | 1010.8 |
| 20260503010504 | 51 | 47 | 3.5 | 7.0 | 0.00 | 0.00 | 0.00 | 95 | 1010.8 |
| 20260503010003 | 51 | 61 | 3.5 | 7.0 | 0.00 | 0.00 | 0.00 | 95 | 1010.9 |
| 20260503005524 | 51 | 65 | 3.5 | 7.0 | 0.00 | 0.00 | 0.00 | 95 | 1010.9 |
| 20260503005003 | 51 | 60 | 2.6 | 7.0 | 0.00 | 0.00 | 0.00 | 95 | 1010.9 |
| 20260503004503 | 51 | 61 | 3.5 | 7.8 | 0.00 | 0.00 | 0.00 | 95 | 1010.9 |
| 20260503004004 | 51 | 67 | 3.5 | 7.8 | 0.00 | 0.00 | 0.00 | 95 | 1010.9 |
| 20260503003503 | 51 | 69 | 3.5 | 7.8 | 0.00 | 0.00 | 0.00 | 95 | 1010.9 |
| 20260503003003 | 51 | 68 | 3.5 | 6.1 | 0.00 | 0.00 | 0.00 | 95 | 1010.8 |
| 20260503002503 | 51 | 61 | 4.3 | 8.7 | 0.00 | 0.00 | 0.00 | 95 | 1010.9 |
| 20260503002003 | 51 | 57 | 3.5 | 8.7 | 0.00 | 0.00 | 0.00 | 95 | 1010.9 |
| 20260503001503 | 51 | 57 | 3.5 | 6.1 | 0.00 | 0.00 | 0.00 | 95 | 1010.9 |
| 20260503001003 | 51 | 58 | 3.5 | 6.1 | 0.00 | 0.00 | 0.00 | 95 | 1011.0 |
| 20260503000524 | 51 | 57 | 3.5 | 7.0 | 0.00 | 0.00 | 0.00 | 95 | 1011.0 |
| 20260503000003 | 51 | 61 | 3.5 | 7.0 | 0.00 | 0.00 | 0.00 | 95 | 1011.0 |
| 20260502235503 | 51 | 66 | 3.5 | 7.0 | 0.00 | 0.00 | 0.00 | 95 | 1011.0 |
| 20260502235024 | 51 | 63 | 2.6 | 7.8 | 0.00 | 0.00 | 0.00 | 95 | 1011.1 |
| 20260502234503 | 52 | 61 | 2.6 | 7.8 | 0.00 | 0.00 | 0.00 | 95 | 1011.0 |
| 20260502234003 | 52 | 59 | 2.6 | 7.0 | 0.00 | 0.00 | 0.00 | 95 | 1011.0 |
| 20260502233503 | 52 | 55 | 2.6 | 7.0 | 0.00 | 0.00 | 0.00 | 95 | 1011.0 |
| 20260502233024 | 52 | 46 | 2.6 | 6.1 | 0.00 | 0.00 | 0.00 | 95 | 1011.1 |
| 20260502232503 | 52 | 45 | 3.5 | 7.0 | 0.00 | 0.00 | 0.00 | 95 | 1011.1 |
| 20260502232003 | 52 | 48 | 3.5 | 7.0 | 0.00 | 0.00 | 0.00 | 95 | 1011.1 |
| 20260502231503 | 52 | 48 | 3.5 | 7.0 | 0.00 | 0.00 | 0.00 | 95 | 1011.0 |
| 20260502231003 | 52 | 56 | 3.5 | 7.8 | 0.00 | 0.00 | 0.00 | 95 | 1011.1 |
| 20260502230503 | 52 | 49 | 2.6 | 7.8 | 0.00 | 0.00 | 0.00 | 95 | 1011.1 |
| 20260502230004 | 52 | 46 | 2.6 | 7.0 | 0.00 | 0.00 | 0.00 | 95 | 1011.1 |
| 20260502225503 | 52 | 49 | 2.6 | 6.1 | 0.00 | 0.00 | 0.00 | 95 | 1011.2 |
| 20260502225003 | 52 | 28 | 2.6 | 5.2 | 0.00 | 0.00 | 0.00 | 95 | 1011.2 |
| 20260502224503 | 52 | 54 | 2.6 | 7.0 | 0.00 | 0.00 | 0.00 | 95 | 1011.2 |
| 20260502224003 | 52 | 72 | 2.6 | 7.0 | 0.00 | 0.00 | 0.00 | 95 | 1011.2 |
| 20260502223503 | 52 | 68 | 2.6 | 6.1 | 0.00 | 0.00 | 0.00 | 95 | 1011.2 |
| 20260502223003 | 52 | 70 | 3.5 | 6.1 | 0.00 | 0.00 | 0.00 | 95 | 1011.2 |
| 20260502222503 | 52 | 71 | 3.5 | 6.1 | 0.00 | 0.00 | 0.00 | 95 | 1011.2 |
| 20260502222003 | 52 | 72 | 3.5 | 6.1 | 0.00 | 0.00 | 0.00 | 95 | 1011.3 |
| 20260502221503 | 52 | 72 | 3.5 | 6.1 | 0.00 | 0.00 | 0.00 | 95 | 1011.3 |
| 20260502221003 | 52 | 70 | 3.5 | 7.8 | 0.00 | 0.00 | 0.00 | 95 | 1011.3 |
| 20260502220503 | 52 | 70 | 3.5 | 7.8 | 0.00 | 0.00 | 0.00 | 95 | 1011.3 |
| 20260502220003 | 52 | 71 | 3.5 | 6.1 | 0.00 | 0.00 | 0.00 | 95 | 1011.3 |
| 20260502215524 | 52 | 68 | 2.6 | 6.1 | 0.00 | 0.00 | 0.00 | 95 | 1011.3 |
| 20260502215003 | 52 | 72 | 2.6 | 6.1 | 0.00 | 0.00 | 0.00 | 95 | 1011.3 |
| 20260502214503 | 52 | 67 | 3.5 | 7.8 | 0.00 | 0.00 | 0.00 | 94 | 1011.4 |
| 20260502214003 | 52 | 65 | 4.3 | 7.8 | 0.00 | 0.00 | 0.00 | 94 | 1011.4 |
| 20260502213503 | 52 | 75 | 4.3 | 7.8 | 0.00 | 0.00 | 0.00 | 94 | 1011.4 |
| 20260502213003 | 52 | 77 | 3.5 | 7.8 | 0.00 | 0.00 | 0.00 | 94 | 1011.4 |
| 20260502212524 | 52 | 72 | 3.5 | 7.0 | 0.00 | 0.00 | 0.00 | 94 | 1011.4 |
| 20260502212004 | 52 | 75 | 4.3 | 9.6 | 0.00 | 0.00 | 0.00 | 94 | 1011.4 |
| 20260502211524 | 52 | 77 | 4.3 | 9.6 | 0.00 | 0.00 | 0.00 | 94 | 1011.5 |
| 20260502211003 | 52 | 76 | 4.3 | 8.7 | 0.00 | 0.00 | 0.00 | 94 | 1011.5 |
| 20260502210503 | 52 | 78 | 4.3 | 8.7 | 0.00 | 0.00 | 0.00 | 94 | 1011.5 |
| 20260502210004 | 52 | 76 | 3.5 | 7.8 | 0.00 | 0.00 | 0.00 | 94 | 1011.5 |
| 20260502205503 | 52 | 77 | 3.5 | 7.8 | 0.00 | 0.00 | 0.00 | 94 | 1011.5 |
| 20260502205024 | 52 | 83 | 4.3 | 7.0 | 0.00 | 0.00 | 0.00 | 94 | 1011.5 |
| 20260502204503 | 52 | 83 | 3.5 | 7.0 | 0.00 | 0.00 | 0.00 | 94 | 1011.5 |
| 20260502204003 | 52 | 82 | 3.5 | 7.0 | 0.00 | 0.00 | 0.00 | 93 | 1011.5 |
| 20260502203524 | 52 | 79 | 3.5 | 7.0 | 0.00 | 0.00 | 0.00 | 93 | 1011.5 |
| 20260502203003 | 52 | 81 | 3.5 | 7.0 | 0.00 | 0.00 | 0.00 | 93 | 1011.5 |
| 20260502202524 | 52 | 84 | 4.3 | 8.7 | 0.00 | 0.00 | 0.00 | 93 | 1011.5 |
| 20260502202003 | 52 | 83 | 3.5 | 8.7 | 0.00 | 0.00 | 0.00 | 93 | 1011.5 |
| 20260502201503 | 53 | 84 | 3.5 | 7.8 | 0.00 | 0.00 | 0.00 | 93 | 1011.5 |
| 20260502201024 | 53 | 84 | 3.5 | 6.1 | 0.00 | 0.00 | 0.00 | 93 | 1011.5 |
| 20260502200503 | 53 | 84 | 4.3 | 7.0 | 0.00 | 0.00 | 0.00 | 92 | 1011.5 |
| 20260502200003 | 53 | 86 | 4.3 | 7.0 | 0.00 | 0.00 | 0.00 | 92 | 1011.4 |
| 20260502195503 | 53 | 86 | 3.5 | 7.0 | 0.00 | 0.00 | 0.00 | 92 | 1011.4 |
| 20260502195003 | 53 | 86 | 4.3 | 7.0 | 0.00 | 0.00 | 0.00 | 92 | 1011.4 |
| 20260502194524 | 53 | 87 | 4.3 | 6.1 | 0.00 | 0.00 | 0.00 | 92 | 1011.4 |
| 20260502194003 | 53 | 89 | 4.3 | 6.1 | 0.00 | 0.00 | 0.00 | 92 | 1011.4 |
| 20260502193524 | 53 | 88 | 4.3 | 6.1 | 0.00 | 0.00 | 0.00 | 92 | 1011.4 |
| 20260502193003 | 53 | 88 | 4.3 | 7.0 | 0.00 | 0.00 | 0.00 | 92 | 1011.3 |
| 20260502192503 | 53 | 86 | 4.3 | 7.0 | 0.00 | 0.00 | 0.00 | 92 | 1011.3 |
| 20260502192003 | 53 | 82 | 4.3 | 7.8 | 0.00 | 0.00 | 0.00 | 92 | 1011.3 |
| 20260502191503 | 53 | 83 | 4.3 | 7.8 | 0.00 | 0.00 | 0.00 | 92 | 1011.3 |
| 20260502191003 | 53 | 83 | 4.3 | 7.8 | 0.00 | 0.00 | 0.00 | 91 | 1011.2 |
| 20260502190503 | 53 | 82 | 4.3 | 7.8 | 0.00 | 0.00 | 0.00 | 91 | 1011.2 |
| 20260502190004 | 54 | 85 | 5.2 | 8.7 | 0.00 | 0.00 | 0.00 | 91 | 1011.2 |
| 20260502185503 | 54 | 84 | 5.2 | 8.7 | 0.00 | 0.00 | 0.00 | 91 | 1011.2 |
| 20260502185003 | 54 | 83 | 4.3 | 7.8 | 0.00 | 0.00 | 0.00 | 91 | 1011.2 |
| 20260502184503 | 54 | 88 | 4.3 | 8.7 | 0.00 | 0.00 | 0.00 | 90 | 1011.2 |
| 20260502184003 | 54 | 87 | 4.3 | 8.7 | 0.00 | 0.00 | 0.00 | 90 | 1011.1 |
| 20260502183503 | 54 | 85 | 4.3 | 8.7 | 0.00 | 0.00 | 0.00 | 90 | 1011.1 |
| 20260502183025 | 54 | 85 | 4.3 | 7.8 | 0.00 | 0.00 | 0.00 | 90 | 1011.1 |
| 20260502182503 | 54 | 86 | 5.2 | 8.7 | 0.00 | 0.00 | 0.00 | 90 | 1011.0 |
| 20260502182003 | 54 | 84 | 6.1 | 9.6 | 0.00 | 0.00 | 0.00 | 90 | 1011.1 |
| 20260502181524 | 54 | 83 | 5.2 | 9.6 | 0.00 | 0.00 | 0.00 | 90 | 1011.0 |
| 20260502181003 | 54 | 82 | 5.2 | 9.6 | 0.00 | 0.00 | 0.00 | 90 | 1011.0 |
| 20260502180503 | 54 | 82 | 5.2 | 10.4 | 0.00 | 0.00 | 0.00 | 90 | 1011.0 |
| 20260502170503 | 55 | 86 | 6.1 | 11.3 | 0.00 | 0.00 | 0.00 | 89 | 1011.1 |
| 20260502164003 | 56 | 85 | 6.1 | 10.4 | 0.00 | 0.00 | 0.00 | 88 | 1011.2 |
| 20260502163503 | 56 | 78 | 5.2 | 10.4 | 0.00 | 0.00 | 0.00 | 87 | 1011.2 |
| 20260502163003 | 56 | 79 | 5.2 | 9.6 | 0.00 | 0.00 | 0.00 | 87 | 1011.3 |
| 20260502162503 | 56 | 82 | 4.3 | 8.7 | 0.00 | 0.00 | 0.00 | 86 | 1011.2 |
| 20260502162003 | 57 | 81 | 4.3 | 7.8 | 0.00 | 0.00 | 0.00 | 86 | 1011.3 |
| 20260502161503 | 57 | 81 | 5.2 | 7.8 | 0.00 | 0.00 | 0.00 | 85 | 1011.2 |
| 20260502161003 | 57 | 82 | 4.3 | 7.8 | 0.00 | 0.00 | 0.00 | 86 | 1011.4 |
| 20260502160503 | 57 | 82 | 4.3 | 7.8 | 0.00 | 0.00 | 0.00 | 86 | 1011.4 |
| 20260502152003 | 58 | 104 | 3.5 | 6.1 | 0.00 | 0.00 | 0.00 | 84 | 1011.6 |
| 20260502151503 | 57 | 101 | 4.3 | 7.0 | 0.00 | 0.00 | 0.00 | 85 | 1011.8 |
| 20260502151003 | 57 | 88 | 4.3 | 7.0 | 0.00 | 0.00 | 0.00 | 86 | 1011.8 |
| 20260502150503 | 57 | 86 | 4.3 | 7.8 | 0.00 | 0.00 | 0.00 | 86 | 1011.8 |
| 20260502130504 | 55 | 86 | 4.3 | 7.8 | 0.00 | 0.00 | 0.00 | 90 | 1013.0 |
| 20260502123504 | 55 | 82 | 5.2 | 8.7 | 0.00 | 0.00 | 0.00 | 89 | 1013.4 |
| 20260502123004 | 55 | 85 | 6.1 | 8.7 | 0.00 | 0.00 | 0.00 | 88 | 1013.5 |
| 20260502122503 | 55 | 85 | 6.1 | 9.6 | 0.00 | 0.00 | 0.00 | 87 | 1013.6 |
| 20260502122003 | 55 | 88 | 5.2 | 9.6 | 0.00 | 0.00 | 0.00 | 87 | 1013.6 |
| 20260502121503 | 55 | 90 | 4.3 | 8.7 | 0.00 | 0.00 | 0.00 | 86 | 1013.6 |
| 20260502121004 | 55 | 97 | 4.3 | 8.7 | 0.00 | 0.00 | 0.00 | 86 | 1013.5 |
| 20260502120503 | 56 | 98 | 5.2 | 7.8 | 0.00 | 0.00 | 0.00 | 87 | 1013.5 |
| 20260502115503 | 55 | 98 | 4.3 | 7.8 | 0.00 | 0.00 | 0.00 | 89 | 1013.5 |
| 20260502115024 | 55 | 101 | 4.3 | 7.8 | 0.00 | 0.00 | 0.00 | 88 | 1013.5 |
| 20260502114524 | 55 | 110 | 3.5 | 7.8 | 0.00 | 0.00 | 0.00 | 90 | 1013.5 |
| 20260502114003 | 55 | 105 | 3.5 | 6.1 | 0.00 | 0.00 | 0.00 | 92 | 1013.5 |
| 20260502113503 | 54 | 100 | 3.5 | 5.2 | 0.00 | 0.00 | 0.00 | 91 | 1013.5 |
| 20260502113004 | 54 | 95 | 2.6 | 4.3 | 0.00 | 0.00 | 0.00 | 92 | 1013.6 |
| 20260502112524 | 54 | 74 | 3.5 | 7.0 | 0.00 | 0.00 | 0.00 | 92 | 1013.7 |
| 20260502112004 | 54 | 78 | 3.5 | 7.0 | 0.00 | 0.00 | 0.00 | 92 | 1013.7 |
| 20260502111524 | 54 | 82 | 3.5 | 7.0 | 0.00 | 0.00 | 0.00 | 92 | 1013.7 |
| 20260502111003 | 53 | 82 | 4.3 | 6.1 | 0.00 | 0.00 | 0.00 | 92 | 1013.7 |
| 20260502110504 | 54 | 83 | 3.5 | 7.0 | 0.00 | 0.00 | 0.00 | 91 | 1013.8 |
| 20260502110024 | 54 | 82 | 3.5 | 7.0 | 0.00 | 0.00 | 0.00 | 91 | 1013.9 |
| 20260502105503 | 54 | 86 | 3.5 | 7.0 | 0.00 | 0.00 | 0.00 | 91 | 1013.9 |
| 20260502105024 | 54 | 89 | 2.6 | 7.0 | 0.00 | 0.00 | 0.00 | 91 | 1014.0 |
| 20260502104503 | 53 | 84 | 2.6 | 5.2 | 0.00 | 0.00 | 0.00 | 91 | 1014.0 |
| 20260502104003 | 53 | 89 | 2.6 | 6.1 | 0.00 | 0.00 | 0.00 | 91 | 1014.1 |
| 20260502103503 | 54 | 102 | 2.6 | 6.1 | 0.00 | 0.00 | 0.00 | 91 | 1014.2 |
| 20260502103003 | 54 | 92 | 2.6 | 6.1 | 0.00 | 0.00 | 0.00 | 91 | 1014.2 |
| 20260502102503 | 54 | 81 | 1.7 | 6.1 | 0.00 | 0.00 | 0.00 | 89 | 1014.2 |
| 20260502102003 | 54 | 75 | 0.9 | 5.2 | 0.00 | 0.00 | 0.00 | 89 | 1014.2 |
| 20260502101503 | 54 | 86 | 1.7 | 5.2 | 0.00 | 0.00 | 0.00 | 88 | 1014.2 |
| 20260502101003 | 54 | 90 | 1.7 | 5.2 | 0.00 | 0.00 | 0.00 | 87 | 1014.2 |
| 20260502100503 | 55 | 261 | 0.0 | 1.7 | 0.00 | 0.00 | 0.00 | 86 | 1014.2 |
| 20260502091503 | 55 | 257 | 0.9 | 3.5 | 0.00 | 0.00 | 0.00 | 84 | 1014.3 |
| 20260502091003 | 55 | 263 | 1.7 | 4.3 | 0.00 | 0.00 | 0.00 | 84 | 1014.3 |
| 20260502090503 | 55 | 263 | 2.6 | 4.3 | 0.00 | 0.00 | 0.00 | 84 | 1014.4 |
| 20260502071503 | 54 | 255 | 0.0 | 2.6 | 0.00 | 0.00 | 0.00 | 90 | 1014.4 |
| 20260502071003 | 53 | 279 | 0.0 | 0.9 | 0.00 | 0.00 | 0.00 | 91 | 1014.4 |
| 20260502070503 | 53 | 287 | 0.0 | 1.7 | 0.00 | 0.00 | 0.00 | 91 | 1014.4 |
| 20260502070003 | 52 | 276 | 0.9 | 1.7 | 0.00 | 0.00 | 0.00 | 91 | 1014.4 |
| 20260502065503 | 52 | 259 | 0.9 | 1.7 | 0.00 | 0.00 | 0.00 | 91 | 1014.4 |
| 20260502065024 | 52 | 254 | 0.9 | 1.7 | 0.00 | 0.00 | 0.00 | 90 | 1014.4 |
| 20260502064503 | 52 | 250 | 0.0 | 0.9 | 0.00 | 0.00 | 0.00 | 90 | 1014.4 |
| 20260502064003 | 52 | 241 | 0.9 | 2.6 | 0.00 | 0.00 | 0.00 | 90 | 1014.5 |
| 20260502063503 | 52 | 247 | 0.0 | 2.6 | 0.00 | 0.00 | 0.00 | 90 | 1014.5 |
| 20260502063003 | 52 | 273 | 0.0 | 1.7 | 0.00 | 0.00 | 0.00 | 90 | 1014.5 |
| 20260502062503 | 52 | 274 | 0.0 | 1.7 | 0.00 | 0.00 | 0.00 | 90 | 1014.4 |
| 20260502062003 | 52 | 275 | 0.0 | 0.9 | 0.00 | 0.00 | 0.00 | 90 | 1014.4 |
| 20260502061503 | 52 | 275 | 0.0 | 0.9 | 0.00 | 0.00 | 0.00 | 90 | 1014.4 |
| 20260502061003 | 52 | 0 | 0.0 | 0.0 | 0.00 | 0.00 | 0.00 | 90 | 1014.3 |
| 20260502060503 | 52 | 0 | 0.0 | 0.0 | 0.00 | 0.00 | 0.00 | 90 | 1014.4 |
| 20260502060003 | 52 | 0 | 0.0 | 0.0 | 0.00 | 0.00 | 0.00 | 91 | 1014.4 |
| 20260502055524 | 52 | 0 | 0.0 | 0.0 | 0.00 | 0.00 | 0.00 | 91 | 1014.4 |
| 20260502055024 | 52 | 0 | 0.0 | 0.0 | 0.00 | 0.00 | 0.00 | 91 | 1014.4 |
| 20260502054524 | 51 | 0 | 0.0 | 0.0 | 0.00 | 0.00 | 0.00 | 91 | 1014.4 |
| 20260502054003 | 51 | 0 | 0.0 | 0.0 | 0.00 | 0.00 | 0.00 | 91 | 1014.4 |
| 20260502053503 | 51 | 0 | 0.0 | 0.0 | 0.00 | 0.00 | 0.00 | 91 | 1014.3 |
| 20260502053003 | 51 | 0 | 0.0 | 0.0 | 0.00 | 0.00 | 0.00 | 91 | 1014.4 |
| 20260502052503 | 51 | 280 | 0.0 | 0.9 | 0.00 | 0.00 | 0.00 | 91 | 1014.4 |
| 20260502052003 | 51 | 280 | 0.0 | 0.9 | 0.00 | 0.00 | 0.00 | 91 | 1014.3 |
| 20260502051503 | 51 | 280 | 0.0 | 0.9 | 0.00 | 0.00 | 0.00 | 91 | 1014.4 |
| 20260502051003 | 51 | 280 | 0.0 | 1.7 | 0.00 | 0.00 | 0.00 | 91 | 1014.4 |
| 20260502050524 | 51 | 280 | 0.0 | 1.7 | 0.00 | 0.00 | 0.00 | 91 | 1014.5 |
| 20260502050003 | 51 | 280 | 0.0 | 1.7 | 0.00 | 0.00 | 0.00 | 91 | 1014.5 |
| 20260502045503 | 51 | 280 | 0.9 | 1.7 | 0.00 | 0.00 | 0.00 | 91 | 1014.5 |
| 20260502044504 | 51 | 280 | 0.0 | 0.9 | 0.00 | 0.00 | 0.00 | 91 | 1014.7 |
| 20260502044003 | 51 | 280 | 0.0 | 1.7 | 0.00 | 0.00 | 0.00 | 91 | 1014.7 |
| 20260502043503 | 51 | 280 | 0.0 | 1.7 | 0.00 | 0.00 | 0.00 | 91 | 1014.7 |
| 20260502043003 | 51 | 280 | 0.0 | 0.9 | 0.00 | 0.00 | 0.00 | 91 | 1014.7 |
| 20260502042503 | 51 | 280 | 0.0 | 0.9 | 0.00 | 0.00 | 0.00 | 91 | 1014.7 |
| 20260502042003 | 51 | 280 | 0.0 | 0.9 | 0.00 | 0.00 | 0.00 | 91 | 1014.7 |
| 20260502041503 | 51 | 280 | 0.0 | 0.9 | 0.00 | 0.00 | 0.00 | 91 | 1014.8 |
| 20260502041003 | 51 | 280 | 0.0 | 0.9 | 0.00 | 0.00 | 0.00 | 91 | 1014.8 |
| 20260502040503 | 51 | 0 | 0.0 | 0.0 | 0.00 | 0.00 | 0.00 | 91 | 1014.9 |
| 20260502040003 | 51 | 279 | 0.0 | 0.9 | 0.00 | 0.00 | 0.00 | 91 | 1014.9 |
| 20260502035503 | 51 | 279 | 0.0 | 0.9 | 0.00 | 0.00 | 0.00 | 91 | 1014.9 |
| 20260502035003 | 51 | 279 | 0.0 | 0.9 | 0.00 | 0.00 | 0.00 | 91 | 1015.0 |
| 20260502034503 | 51 | 279 | 0.0 | 0.9 | 0.00 | 0.00 | 0.00 | 91 | 1015.0 |
| 20260502034003 | 51 | 279 | 0.0 | 0.9 | 0.00 | 0.00 | 0.00 | 91 | 1014.9 |
| 20260502033503 | 51 | 279 | 0.0 | 0.9 | 0.00 | 0.00 | 0.00 | 91 | 1015.0 |
| 20260502033003 | 51 | 279 | 0.0 | 0.9 | 0.00 | 0.00 | 0.00 | 91 | 1015.0 |
| 20260502032503 | 51 | 0 | 0.0 | 0.0 | 0.00 | 0.00 | 0.00 | 91 | 1014.9 |
| 20260502032003 | 51 | 0 | 0.0 | 0.0 | 0.00 | 0.00 | 0.00 | 91 | 1015.0 |
| 20260502031503 | 51 | 0 | 0.0 | 0.0 | 0.00 | 0.00 | 0.00 | 91 | 1015.0 |
| 20260502031003 | 51 | 0 | 0.0 | 0.0 | 0.00 | 0.00 | 0.00 | 91 | 1015.1 |
| 20260502030503 | 51 | 0 | 0.0 | 0.0 | 0.00 | 0.00 | 0.00 | 91 | 1015.1 |
| 20260502030003 | 51 | 279 | 0.0 | 0.9 | 0.00 | 0.00 | 0.00 | 91 | 1015.1 |
| 20260502025503 | 51 | 279 | 0.0 | 0.9 | 0.00 | 0.00 | 0.00 | 91 | 1015.2 |
| 20260502025003 | 51 | 280 | 0.0 | 0.9 | 0.00 | 0.00 | 0.00 | 91 | 1015.2 |
| 20260502024503 | 51 | 280 | 0.0 | 0.9 | 0.00 | 0.00 | 0.00 | 91 | 1015.2 |
| 20260502024003 | 50 | 0 | 0.0 | 0.0 | 0.00 | 0.00 | 0.00 | 91 | 1015.2 |
| 20260502023503 | 50 | 0 | 0.0 | 0.0 | 0.00 | 0.00 | 0.00 | 91 | 1015.3 |
| 20260502023003 | 51 | 280 | 0.0 | 0.9 | 0.00 | 0.00 | 0.00 | 91 | 1015.3 |
| 20260502022503 | 50 | 280 | 0.0 | 0.9 | 0.00 | 0.00 | 0.00 | 91 | 1015.3 |